Theta_e
310 310 309 309 307 306 305 305 308 309 309 311 311 311 310 309 309 308 307 306 305 304 305 310 313 311 310 308 306 306 310 312 314 317 320 323 324 325 326 324 325 325 326
309 308 306 303 301 300 300 301 302 305 309 311 311 311 309 308 308 307 306 306 306 305 304 306 307 309 308 306 304 303 304 305 310 311 314 319 321 323 324 324 324 323 324
306 303 301 300 299 299 299 299 299 301 306 309 310 310 308 307 306 306 306 305 305 305 303 303 301 300 305 304 302 302 301 302 304 307 310 313 317 317 320 323 325 324 325
301 299 299 299 298 298 298 297 297 299 303 306 308 309 308 306 305 305 305 304 303 302 301 300 298 297 297 299 300 300 300 300 301 300 303 307 310 312 315 320 323 325 325
300 299 299 298 298 297 298 297 297 297 299 304 307 306 305 304 304 303 302 301 301 300 299 296 295 294 294 294 294 297 298 298 299 299 298 298 303 309 312 316 319 323 323
299 298 298 298 297 297 297 297 297 299 301 303 304 304 303 302 301 301 300 299 298 296 294 293 293 292 292 292 292 293 293 297 298 298 297 297 295 298 303 310 316 318 317
299 298 297 297 297 296 296 296 296 301 303 303 304 302 300 299 299 298 296 295 293 292 292 292 292 292 292 292 292 291 290 292 296 296 296 296 297 296 296 298 302 310 316
301 297 297 296 297 296 296 295 295 298 301 302 302 301 299 298 297 296 295 293 291 290 290 291 291 291 291 291 290 290 289 289 290 294 295 295 296 296 296 296 296 298 304
304 300 297 296 296 296 296 295 294 295 298 301 302 301 299 300 298 296 294 291 289 289 289 289 290 290 290 289 289 289 289 288 288 288 293 294 295 295 295 295 296 296 296
306 304 299 296 296 296 296 295 295 294 294 293 293 294 295 293 293 292 292 291 289 288 288 288 289 288 288 288 288 288 288 288 287 287 288 292 293 293 294 294 294 295 295
307 306 303 297 295 295 295 295 295 294 294 293 293 292 292 292 291 291 290 290 289 288 288 288 288 288 287 287 287 287 287 287 287 287 287 288 291 292 293 293 294 294 294
308 307 305 300 295 294 294 294 294 294 293 293 293 292 292 291 291 290 290 289 289 288 287 287 287 287 286 286 286 286 286 287 286 286 287 287 287 288 291 291 292 292 293
309 308 306 303 296 294 293 293 293 293 293 293 292 292 291 291 291 290 290 289 288 288 287 287 287 286 286 286 286 286 286 286 286 286 286 286 287 287 287 287 287 288 288
310 308 307 305 298 294 293 293 293 292 292 292 292 291 291 291 290 290 289 289 288 287 287 287 286 286 285 285 285 285 285 285 286 286 286 286 286 287 287 287 287 287 287
311 309 307 306 301 295 293 292 292 292 292 291 291 291 290 290 289 289 289 288 288 287 287 286 286 286 285 285 285 284 285 285 285 285 285 286 285 285 286 286 287 287 287
312 310 308 306 302 296 293 292 292 291 291 291 291 290 290 289 289 288 288 288 288 287 287 286 286 285 285 284 284 284 284 284 284 285 285 285 285 285 285 285 285 286 286
313 310 308 306 303 298 294 292 291 291 290 290 290 290 289 288 288 288 287 287 287 287 286 286 286 285 284 284 284 283 283 283 284 284 284 284 285 285 285 285 285 285 285
314 311 308 307 301 298 293 292 291 291 290 290 290 289 288 287 287 287 286 287 287 286 286 285 285 285 284 283 283 283 283 283 283 283 283 283 284 284 284 284 284 284 284
315 311 308 306 303 298 294 292 291 290 290 289 289 289 288 287 287 286 286 287 286 286 285 285 284 284 284 283 283 283 283 282 282 282 283 283 283 283 283 283 284 284 284
316 312 308 307 307 302 294 294 291 291 289 289 289 289 288 288 286 286 286 286 286 285 285 284 284 283 283 282 282 282 283 282 282 282 282 282 282 282 283 283 283 283 283
315 310 309 305 308 299 298 295 291 291 289 289 289 289 288 288 286 286 286 286 285 285 284 283 283 283 282 282 282 281 281 281 282 282 282 282 282 282 282 282 283 283 283
315 311 309 309 309 307 297 294 291 291 289 289 289 288 288 287 286 285 285 285 285 284 283 283 282 282 282 281 281 280 280 281 280 280 280 281 281 281 281 282 282 282 282
315 312 309 308 307 302 296 293 291 290 289 289 288 288 287 287 286 285 285 284 284 283 283 282 282 281 282 281 280 280 279 279 279 279 278 280 279 279 280 281 281 281 281
316 313 310 309 308 305 296 294 292 290 289 289 288 288 287 286 286 285 284 283 283 282 282 281 281 281 281 280 279 279 278 278 278 278 277 279 278 278 279 280 280 280 280
316 314 312 310 307 301 296 294 292 290 290 289 288 288 287 286 286 285 284 283 282 282 281 281 281 281 281 279 279 279 278 277 277 278 277 276 277 276 277 279 280 280 279
316 314 311 308 305 300 296 294 291 290 291 289 288 288 287 286 286 285 285 283 282 281 281 280 280 281 280 279 278 278 277 277 276 276 276 275 276 275 275 276 277 277 278
Wind_Speed
7 7 7 7 6 7 6 5 4 4 4 5 5 4 6 7 8 10 11 11 12 13 15 14 14 16 14 11 18 16 8 3 5 4 5 4 5 10 16 21 19 17 16
6 6 7 7 7 7 7 6 5 3 4 6 5 5 4 6 7 8 8 10 12 13 12 11 9 12 13 14 17 19 19 11 5 5 8 8 6 9 12 14 20 19 20
7 7 7 6 7 9 8 7 5 4 4 6 5 7 6 6 6 5 6 8 9 11 10 9 9 6 10 11 13 18 18 18 17 7 6 7 10 7 5 10 14 20 20
8 7 8 8 11 10 8 7 5 3 5 6 8 10 9 8 6 3 3 5 7 9 9 10 10 8 6 6 11 16 17 16 16 15 8 5 3 5 5 4 17 15 15
8 7 7 8 9 9 8 8 6 3 6 9 12 13 11 8 5 2 3 4 7 8 10 9 10 9 8 7 8 12 15 16 16 16 12 7 4 2 4 4 8 12 15
7 6 6 7 8 8 8 7 5 6 7 12 15 14 10 6 2 1 4 7 9 10 10 9 8 7 8 9 10 9 11 15 15 15 16 12 7 5 4 7 8 7 5
6 6 5 6 7 6 7 6 5 7 13 15 14 12 9 5 2 3 6 9 9 10 9 8 7 8 9 9 11 11 12 11 13 14 15 15 14 8 7 6 7 9 7
6 6 5 4 4 5 5 5 4 7 11 14 11 7 5 4 5 4 6 7 8 8 8 8 8 10 11 13 13 14 12 11 10 12 13 13 13 14 12 8 7 8 10
5 5 3 2 3 4 3 4 4 6 8 11 11 10 5 5 6 8 6 6 7 7 7 8 9 10 11 12 14 15 13 11 11 11 11 12 12 12 12 12 10 10 8
4 4 3 2 2 2 3 2 1 3 5 7 7 9 12 9 5 4 5 4 7 7 8 9 11 12 13 13 12 13 13 12 11 11 10 10 10 11 12 12 12 12 11
1 2 3 2 2 1 2 2 1 1 2 4 4 5 5 5 5 4 4 3 6 7 8 9 11 12 12 14 15 13 13 12 12 12 10 9 9 10 10 11 11 11 11
3 2 3 3 3 3 3 3 3 3 3 4 5 5 5 5 6 4 4 5 4 5 6 8 10 11 14 15 14 14 13 13 12 12 11 11 11 10 10 10 10 10 11
6 5 5 5 5 5 5 5 4 4 5 5 5 5 5 6 7 7 8 8 7 5 3 6 9 13 16 15 15 14 14 14 13 13 12 12 12 12 13 12 11 10 10
10 9 7 7 7 7 7 7 7 6 6 6 6 6 6 6 6 6 7 9 10 7 3 6 6 12 15 15 17 16 15 15 14 13 14 13 14 13 13 14 13 13 12
15 13 10 10 9 9 10 9 9 8 8 7 7 7 7 7 7 7 7 8 9 7 9 4 12 14 16 17 19 19 18 16 15 14 14 15 16 15 15 15 15 15 15
19 16 15 13 11 11 11 12 11 10 10 9 8 8 8 8 9 8 8 7 7 9 9 13 14 16 16 18 19 20 19 17 16 15 15 15 16 17 17 17 17 17 17
23 21 18 17 13 15 13 13 13 12 11 10 10 9 9 9 9 10 10 8 8 10 14 14 15 17 18 20 19 19 19 17 16 16 15 15 16 17 18 18 18 18 19
27 25 22 19 17 16 15 13 13 12 12 12 12 11 11 11 10 11 12 11 10 12 14 17 19 19 19 21 23 22 18 17 16 16 16 17 17 17 17 18 19 20 20
30 27 25 21 16 18 16 15 15 14 14 13 13 12 12 13 12 12 12 12 12 13 15 18 21 21 23 23 24 22 20 18 17 16 15 17 17 17 17 18 19 20 21
31 31 28 21 17 20 18 18 17 16 16 15 14 14 14 14 14 13 12 13 13 14 15 17 19 21 23 25 25 25 23 21 19 16 15 15 16 18 19 21 21 20 21
33 32 27 27 21 21 22 21 17 17 17 17 16 16 15 15 15 14 13 13 14 15 16 18 18 20 22 24 24 25 26 27 24 18 17 18 18 18 19 19 19 20 24
36 34 32 30 27 25 24 22 18 19 18 19 18 16 16 15 15 15 15 15 16 15 16 17 18 20 21 21 22 23 25 28 29 24 29 27 24 22 20 20 22 24 25
38 36 35 32 29 25 25 23 21 20 19 18 18 17 17 16 16 15 16 17 17 17 17 18 19 20 20 19 21 22 23 24 26 27 30 36 29 28 24 22 21 22 25
40 39 36 31 32 28 26 23 23 21 20 19 18 17 18 17 17 16 16 19 18 17 17 19 19 19 19 18 19 21 23 25 27 27 25 35 29 30 31 28 24 22 22
40 40 38 34 33 28 26 24 23 22 21 21 19 19 20 19 17 17 18 18 18 16 17 19 20 19 18 17 16 20 22 24 29 32 29 24 32 37 36 32 25 18 24
40 38 36 34 31 28 26 24 22 21 22 23 23 22 21 20 20 18 19 17 18 15 18 19 18 17 17 17 17 19 20 22 24 28 23 30 34 28 22 30 23 35 31
Wind_Direction
21 18 23 26 29 42 47 53 50 60 71 105 106 81 79 71 53 40 52 47 44 44 51 63 65 58 36 20 37 30 10 280 242 273 268 266 252 236 226 222 221 229 228
23 29 34 39 47 55 59 64 80 93 118 139 138 130 108 101 92 82 62 41 34 34 47 58 64 50 42 29 31 29 37 23 334 282 250 250 254 262 259 253 233 233 236
45 48 52 62 69 58 50 49 64 121 155 164 172 165 151 127 112 83 63 46 32 29 28 19 20 354 44 33 22 28 26 29 36 0 324 262 257 264 276 256 248 221 234
51 47 50 55 55 48 39 41 63 117 168 185 171 166 167 156 138 117 67 31 28 22 11 0 355 351 341 331 19 30 28 30 26 25 355 360 328 294 266 264 229 191 170
47 43 48 47 48 38 30 27 45 85 153 164 158 155 153 155 148 107 11 9 6 0 354 348 342 345 355 4 11 25 26 30 28 25 14 342 350 310 269 267 271 214 183
51 53 50 46 45 30 28 41 52 103 138 157 156 157 153 157 159 303 335 341 346 347 345 341 341 344 344 352 3 7 10 30 28 26 24 15 329 316 291 252 241 251 150
59 61 53 44 39 34 38 52 85 128 147 156 163 157 155 171 230 311 337 341 345 347 344 343 344 344 343 345 341 348 356 14 23 22 20 22 21 351 320 305 283 264 261
56 56 55 38 33 32 48 81 113 151 163 170 180 185 188 229 253 287 317 335 340 340 332 332 333 335 337 338 339 340 348 345 355 15 16 16 16 18 15 348 316 296 271
62 53 40 39 24 25 42 81 135 180 205 212 220 231 241 234 238 255 286 335 346 336 327 320 323 330 333 335 332 333 342 343 341 345 13 14 18 18 16 14 7 4 322
63 45 28 17 352 353 355 13 86 167 202 211 218 234 246 254 224 226 249 305 340 332 324 322 326 331 332 334 335 331 334 336 339 335 342 12 14 11 15 15 12 10 6
60 3 10 336 284 314 302 312 311 277 250 253 252 245 255 265 268 249 235 260 311 323 322 321 325 332 336 335 330 331 331 331 328 330 329 334 6 8 9 10 8 6 2
250 285 318 311 309 294 286 285 285 292 287 278 273 273 278 281 288 294 288 303 314 318 304 314 321 327 331 331 330 329 325 324 321 317 320 317 320 331 353 359 358 2 360
263 274 290 310 309 288 282 281 283 283 284 282 275 268 269 280 290 303 316 323 320 324 288 299 310 328 331 332 330 330 328 324 317 311 307 308 309 312 316 322 325 328 332
260 267 284 304 301 286 281 278 277 278 279 282 279 282 282 284 284 294 306 314 319 312 301 310 311 332 336 339 336 333 330 324 315 307 302 302 300 301 303 305 310 312 313
256 266 274 284 285 281 277 276 276 275 274 275 273 280 287 290 292 294 300 302 305 310 318 309 333 336 334 331 331 331 328 323 315 308 302 299 298 297 297 296 296 300 303
250 258 263 267 275 276 267 267 267 263 264 267 269 274 276 284 289 291 297 294 290 297 301 312 327 328 331 329 329 328 326 321 314 307 301 297 295 295 295 295 294 292 291
247 250 257 258 263 266 257 260 261 262 263 264 265 265 272 278 283 289 293 287 286 293 300 309 318 324 328 326 329 327 323 319 314 307 301 298 294 293 293 292 290 289 290
247 248 248 254 254 265 261 262 263 265 261 260 262 263 272 276 279 284 284 283 286 294 301 307 315 321 326 329 330 329 327 322 317 310 305 300 299 297 292 289 289 289 289
248 246 247 250 257 264 259 263 260 262 261 258 258 259 269 276 279 279 276 277 282 288 295 303 312 321 325 328 327 327 328 325 323 317 307 301 300 296 292 290 288 287 288
246 245 242 247 260 264 255 259 254 261 259 257 257 257 266 275 276 273 269 273 277 283 289 298 307 314 321 325 326 327 328 329 328 323 314 310 304 299 296 293 292 288 286
248 242 239 242 251 249 256 255 250 259 256 255 256 258 267 274 274 272 270 270 275 282 288 295 302 311 319 323 326 330 329 329 329 331 321 320 310 307 302 297 294 289 290
247 244 243 246 252 257 250 251 249 255 250 252 254 258 266 268 270 270 270 270 277 282 289 292 302 311 318 319 321 326 329 330 333 334 327 323 327 318 310 303 303 300 297
248 248 245 246 256 253 248 246 249 251 250 253 254 257 263 265 268 265 268 271 276 283 289 293 301 309 311 314 318 321 324 324 322 327 324 317 328 319 316 311 305 297 293
251 251 251 253 254 250 243 246 250 248 249 249 254 262 266 268 270 266 268 272 276 280 286 290 296 300 305 309 313 317 319 317 315 317 322 315 323 318 318 317 316 306 299
251 254 256 256 253 245 243 245 246 247 253 257 257 259 265 266 263 263 266 270 271 276 280 286 295 298 303 306 300 301 309 310 315 319 325 317 320 318 317 317 318 308 310
254 256 256 258 256 249 243 245 244 247 251 256 256 257 263 268 265 266 269 268 270 280 279 286 287 290 296 299 297 298 302 304 310 314 316 318 317 324 318 321 311 312 310